Weather History for Parkersburg, WV

Change the Weather History Date:

Wednesday, January 2, 2013

  Actual Average Record
Temperature  
Mean Temperature 25 °F 32 °F  
Max Temperature 31 °F 40 °F 71 °F (2000)
Min Temperature 18 °F 24 °F -6 °F (1968)
Degree Days  
Heating Degree Days 40 33  
Month to date heating degree days 74 66  
Cooling Degree Days 0 0  
Month to date cooling degree days 0 0  
Year to date cooling degree days 0 0  
Moisture  
Dew Point 15 °F    
Average Humidity 69    
Maximum Humidity 84    
Minimum Humidity 53    
Precipitation  
Precipitation 0.00 in 0.09 in 0.67 in (2006)
Month to date precipitation 0.04 0.19  
Year to date precipitation 0.04 0.19  
Sea Level Pressure  
Sea Level Pressure 30.22 in    
Wind  
Wind Speed 3 mph (WNW)    
Max Wind Speed 12 mph    
Max Gust Speed 14 mph    
Visibility 10 miles    
Events      
T = Trace of Precipitation, MM = Missing Value Source: NWS Daily Summary

Daily Weather History Graph

Daily Weather History Graph

Search for Another Location

Airport:

Trip Planner

Search our weather history database for the weather conditions in past years. The results will help you decide how hot, cold, wet, or windy it might be!

Date:

Astronomy

Jan. 02, 2013 Rise Set
Actual Time 7:45 AM EST 5:14 PM EST
Civil Twilight 7:15 AM EST 5:44 PM EST
Nautical Twilight 6:42 AM EST 6:17 PM EST
Astronomical Twilight 6:09 AM EST 6:50 PM EST
Moon 10:43 PM EST (1/2) 10:28 AM EST (1/2)
Length of Visible Light 10h 28m
Length of Day
9h 28m
Waning Gibbous, 75% of the Moon is Illuminated
Jan 2
Waning Gibbous
Jan 4
Last Quarter
Jan 11
New
Jan 18
First Quarter
Jan 26
Full

Hourly Weather History & Observations

Time (EST) Temp. Windchill Dew Point Humidity Pressure Visibility Wind Dir Wind Speed Gust Speed Precip Events Conditions
12:08 AM 26.6 °F 18.2 °F 17.6 °F 69% 30.14 in 10.0 mi WNW 8.1 mph - N/A   Overcast
12:53 AM 25.0 °F 17.1 °F 16.0 °F 69% 30.15 in 10.0 mi NW 6.9 mph - N/A   Overcast
1:53 AM 24.1 °F 16.0 °F 16.0 °F 71% 30.16 in 10.0 mi West 6.9 mph - N/A   Overcast
2:53 AM 23.0 °F 12.4 °F 14.0 °F 68% 30.17 in 10.0 mi WNW 10.4 mph - N/A   Clear
3:21 AM 21.2 °F 16.4 °F 14.0 °F 74% 30.15 in 10.0 mi WNW 3.5 mph - N/A   Overcast
3:53 AM 21.9 °F 13.4 °F 12.9 °F 68% 30.18 in 10.0 mi WNW 6.9 mph - N/A   Overcast
4:53 AM 21.9 °F 13.4 °F 12.9 °F 68% 30.19 in 10.0 mi WNW 6.9 mph - N/A   Overcast
5:37 AM 21.2 °F 14.9 °F 12.2 °F 68% 30.17 in 10.0 mi WNW 4.6 mph - N/A   Scattered Clouds
5:53 AM 21.0 °F - 12.9 °F 71% 30.20 in 10.0 mi Calm Calm - N/A   Clear
6:53 AM 19.9 °F - 14.0 °F 78% 30.22 in 10.0 mi Calm Calm - N/A   Clear
7:53 AM 19.0 °F - 14.0 °F 81% 30.23 in 10.0 mi Calm Calm - N/A   Clear
8:53 AM 19.0 °F - 15.1 °F 85% 30.25 in 10.0 mi Calm Calm - N/A   Clear
9:53 AM 23.0 °F 17.0 °F 14.0 °F 68% 30.26 in 10.0 mi South 4.6 mph - N/A   Clear
10:53 AM 26.1 °F 21.9 °F 14.0 °F 60% 30.27 in 10.0 mi SW 3.5 mph - N/A   Clear
11:33 AM 26.6 °F 21.2 °F 15.8 °F 64% 30.24 in 10.0 mi Variable 4.6 mph - N/A   Mostly Cloudy
11:48 AM 26.6 °F 22.6 °F 15.8 °F 64% 30.24 in 10.0 mi NNW 3.5 mph - N/A   Scattered Clouds
11:53 AM 27.0 °F 23.0 °F 15.1 °F 61% 30.27 in 10.0 mi Variable 3.5 mph - N/A   Partly Cloudy
12:32 PM 26.6 °F 21.2 °F 15.8 °F 64% 30.22 in 10.0 mi Variable 4.6 mph - N/A   Mostly Cloudy
12:53 PM 28.0 °F 22.8 °F 16.0 °F 61% 30.25 in 10.0 mi Variable 4.6 mph - N/A   Mostly Cloudy
1:14 PM 30.2 °F 22.6 °F 15.8 °F 55% 30.22 in 10.0 mi NW 8.1 mph - N/A   Mostly Cloudy
1:53 PM 28.9 °F - 16.0 °F 58% 30.24 in 10.0 mi Calm Calm - N/A   Mostly Cloudy
2:53 PM 30.0 °F 26.5 °F 16.0 °F 56% 30.23 in 10.0 mi NW 3.5 mph - N/A   Clear
3:53 PM 30.9 °F - 15.1 °F 52% 30.24 in 10.0 mi Calm Calm - N/A   Clear
4:53 PM 30.0 °F 26.5 °F 15.1 °F 54% 30.24 in 10.0 mi SSW 3.5 mph - N/A   Clear
5:53 PM 28.9 °F - 14.0 °F 54% 30.24 in 10.0 mi Calm Calm - N/A   Clear
6:53 PM 27.0 °F - 17.1 °F 66% 30.25 in 10.0 mi Calm Calm - N/A   Clear
7:53 PM 26.1 °F - 19.0 °F 75% 30.27 in 10.0 mi Calm Calm - N/A   Clear
9:53 PM 25.0 °F - 18.0 °F 75% 30.29 in 10.0 mi Calm Calm - N/A   Clear
10:53 PM 24.1 °F - 19.0 °F 81% 30.29 in 8.0 mi Calm Calm - N/A   Clear